The Ridgeway Revenge
Skip Navigation Links
Results
Team Results
Leaderboard
Past Results
Race Stats
Smartphone Results
24 June 2017
HyperLink
Click your name for detailed results
Page 1 of 4 (172 items)
[1]234
Pos
Bib No
Fav
Share
Print
Name
Gun Time
Chip Time
Category
Cat Pos
Gender
Gen Pos
Team
Pace
1177Max HARRISON-TOSATTO1:26:36.51:26:35.3Sen1Male1  9.1 m/hr
2212Kevin SMITH1:29:24.21:29:23.8V401Male2  8.8 m/hr
3185Stuart TEMPLE1:31:10.91:30:39.2Sen2Male3  8.6 m/hr
451Nick COUPE1:32:29.61:32:27.0Sen3Male4  8.5 m/hr
5103Ian THOMPSON1:36:30.21:36:29.2V402Male5DEBBIETHOMPSONSBIRTHDAYBASH 8.1 m/hr
681Ian SHELLEY1:36:46.21:36:43.7V501Male6  8.1 m/hr
763Michael TUNE1:37:09.41:37:07.9V502Male7  8.1 m/hr
876Matt HODEY1:38:05.41:38:03.9Sen4Male8  8.0 m/hr
9213Valeria SESTO1:38:11.61:38:05.6V401Female1  8.0 m/hr
10181Francis MAY1:38:30.81:38:30.1Sen5Male9  8.0 m/hr
11256Andrea WEST1:42:00.01:41:59.0Sen1Female2  7.7 m/hr
12122Geri TAYLOR1:43:36.81:43:33.2V402Female3  7.6 m/hr
1329Julian TULK1:43:46.61:43:44.8Sen6Male10  7.6 m/hr
1412Sam HUSBANDS1:44:47.91:44:43.9Sen7Male11  7.5 m/hr
15172Patrick COOPER1:45:13.51:45:12.6Sen8Male12  7.5 m/hr
16115Stuart BAXTER1:45:14.41:45:12.8Sen9Male13  7.5 m/hr
1762Carl DAWSON1:45:15.81:45:02.1V403Male14  7.5 m/hr
18119Phil FREEMAN1:45:43.41:45:38.2Sen10Male15  7.4 m/hr
19195Jakub PTACEK1:45:48.61:45:41.0Sen11Male16  7.4 m/hr
2055Sula LAUDER1:47:02.31:46:57.6Sen2Female4  7.3 m/hr
21180Will PROUT1:47:06.91:47:03.7Sen12Male17  7.3 m/hr
2291John BEALE1:47:27.91:47:10.2Sen13Male18  7.3 m/hr
23173Richard STEVENS1:47:49.61:47:45.9Sen14Male19  7.3 m/hr
2461Tobias DE MENDONCA1:49:39.01:49:24.1Sen15Male20  7.2 m/hr
25147Adrian MOSS1:49:40.11:49:39.3Sen16Male21  7.2 m/hr
26157Peter BEDWELL1:50:00.41:49:56.5Sen17Male22THE HOT STEPPERS 7.1 m/hr
27192Matt PRITCHARD1:50:06.81:49:57.8Sen18Male23  7.1 m/hr
28149Andrew NASH1:50:15.61:49:54.6Sen19Male24  7.1 m/hr
29144Matthew TROJANOVICH1:50:31.61:49:31.0V404Male25  7.1 m/hr
3082Daren PIPER1:50:32.71:50:22.8V503Male26  7.1 m/hr
31129James PORTER1:50:39.01:50:28.0V405Male27  7.1 m/hr
32201Andrew WILSON1:50:48.21:50:35.2Sen20Male28  7.1 m/hr
33204Graham MUIR1:51:32.81:51:14.7Sen21Male29  7.0 m/hr
3495Richard BURBIDGE1:51:43.41:51:34.0V406Male30HIGHWORTH RUNNING CLUB 7.0 m/hr
3549David RICHARDS1:52:19.41:52:13.2V407Male31  7.0 m/hr
3680Henrietta MACKINNON1:52:37.81:52:30.1V403Female5  7.0 m/hr
37210Ashley FULLER1:53:15.31:52:46.5Sen22Male32  6.9 m/hr
38187Mike TAYLOR1:53:37.21:53:09.2Sen23Male33  6.9 m/hr
39161Jason BUTLER1:54:04.41:53:55.7Sen24Male34  6.9 m/hr
4028Agnes NAGY1:54:18.31:54:16.3Sen3Female6  6.9 m/hr
4153Andrew BELL1:54:27.51:54:13.8V408Male35  6.9 m/hr
42163Matthew HILTON1:54:58.41:54:31.2Sen25Male36  6.8 m/hr
43162Iain DILLINGHAM1:54:58.51:54:31.0Sen26Male37  6.8 m/hr
44279Tesher FITZPATRICK1:55:23.51:55:15.8V404Female7  6.8 m/hr
4597Robin SMITH1:55:31.31:55:23.3Sen27Male38  6.8 m/hr
4690Robert LABUS1:55:38.81:55:32.7V409Male39  6.8 m/hr
47211Robert GRICE1:55:55.81:55:52.2V504Male40  6.8 m/hr
4884Richard SMITH1:56:11.11:56:00.0V4010Male41  6.8 m/hr
49178Lisa O'NEILL1:56:41.01:56:38.0V405Female8  6.7 m/hr
50160Andrew SCHAUERMAN1:56:43.31:56:27.9V4011Male42  6.7 m/hr
Page 1 of 4 (172 items)
[1]234
fb